Pike County Lake Weather Center

Moon Phase Calendar



Pike County Lake Water Level
Online Cameras

 


      

Current Conditions in Troy
1/19/2021 5:00:29 AM

30°F
Feels Like 24
Clear
Humidity
80%
Pressure
30.3"
Wind
2.1 mph (SSW)
Dew Point
25°F
UV Index
0/10 (Low)
Visibility
6 mi

Hourly Forecast

Date & Time Tue, Jan 19
5:00 AM
Tue, Jan 19
6:00 AM
Tue, Jan 19
7:00 AM
Tue, Jan 19
8:00 AM
Tue, Jan 19
9:00 AM
Tue, Jan 19
10:00 AM
Tue, Jan 19
11:00 AM
Tue, Jan 19
12:00 PM
Tue, Jan 19
1:00 PM
Tue, Jan 19
2:00 PM
Tue, Jan 19
3:00 PM
Tue, Jan 19
4:00 PM
Tue, Jan 19
5:00 PM
Tue, Jan 19
6:00 PM
Tue, Jan 19
7:00 PM
Tue, Jan 19
8:00 PM
Tue, Jan 19
9:00 PM
Tue, Jan 19
10:00 PM
Tue, Jan 19
11:00 PM
Wed, Jan 20
12:00 AM
Wed, Jan 20
1:00 AM
Wed, Jan 20
2:00 AM
Wed, Jan 20
3:00 AM
Wed, Jan 20
4:00 AM
Wed, Jan 20
5:00 AM
Wed, Jan 20
6:00 AM
Wed, Jan 20
7:00 AM
Wed, Jan 20
8:00 AM
Wed, Jan 20
9:00 AM
Wed, Jan 20
10:00 AM
Wed, Jan 20
11:00 AM
Wed, Jan 20
12:00 PM
Wed, Jan 20
1:00 PM
Wed, Jan 20
2:00 PM
Wed, Jan 20
3:00 PM
Wed, Jan 20
4:00 PM
Wed, Jan 20
5:00 PM
Wed, Jan 20
6:00 PM
Wed, Jan 20
7:00 PM
Wed, Jan 20
8:00 PM
Wed, Jan 20
9:00 PM
Wed, Jan 20
10:00 PM
Wed, Jan 20
11:00 PM
Thu, Jan 21
12:00 AM
Thu, Jan 21
1:00 AM
Thu, Jan 21
2:00 AM
Thu, Jan 21
3:00 AM
Thu, Jan 21
4:00 AM
Condition
Clear

Clear

Clear

Clear

Clear

Clear

Clear

Clear

Clear

Clear

Clear

Clear

Clear

Clear

Clear

Clear

Clear

Clear

Clouds

Clouds

Clouds

Clouds

Clouds

Clouds

Clouds

Clouds

Clouds

Clouds

Clouds

Clouds

Clouds

Clouds

Clouds

Clouds

Clouds

Clouds

Clouds

Clouds

Clouds

Clouds

Clouds

Clouds

Clouds

Clouds

Clouds

Clouds

Clouds

Clouds
Temperature 30°F35°F37°F43°F49°F54°F58°F60°F62°F62°F62°F60°F54°F51°F50°F49°F49°F48°F50°F50°F50°F50°F50°F50°F49°F48°F49°F49°F49°F53°F56°F58°F59°F60°F59°F57°F52°F49°F48°F47°F47°F46°F46°F47°F48°F48°F47°F47°F
Feels Like 24°F29°F32°F38°F43°F48°F52°F54°F57°F57°F57°F56°F49°F47°F46°F44°F44°F43°F44°F45°F46°F45°F45°F45°F43°F43°F44°F44°F45°F48°F51°F52°F53°F53°F53°F52°F47°F45°F43°F43°F43°F43°F42°F43°F43°F42°F41°F42°F
Cloudiness 1%1%0%0%0%0%0%0%0%0%0%0%0%0%0%0%5%6%21%34%99%100%100%99%99%97%100%100%100%100%100%100%100%100%100%94%92%94%29%65%60%59%66%71%100%96%91%92%
Visibility 6 mi6 mi6 mi6 mi6 mi6 mi6 mi6 mi6 mi6 mi6 mi6 mi6 mi6 mi6 mi6 mi6 mi6 mi6 mi6 mi6 mi6 mi6 mi6 mi6 mi6 mi6 mi6 mi6 mi6 mi6 mi6 mi6 mi6 mi6 mi6 mi6 mi6 mi6 mi6 mi6 mi6 mi6 mi6 mi6 mi6 mi6 mi6 mi
Precipitation 0%0%0%0%0%0%0%0%0%0%0%0%0%0%0%0%0%0%0%0%0%0%0%0%0%0%0%0%0%0%0%0%0%0%0%0%0%0%0%0%0%0%0%0%0%0%0%0%
Humidity 80%76%74%64%55%47%41%37%36%36%38%48%54%57%59%62%61%63%63%66%69%71%71%70%76%88%89%88%85%71%58%51%45%44%45%51%59%62%64%66%65%66%65%64%63%68%74%81%
Dew Point 25°F28°F30°F32°F34°F35°F35°F34°F35°F35°F36°F41°F38°F36°F36°F36°F37°F37°F38°F40°F41°F41°F41°F41°F42°F45°F46°F46°F45°F44°F42°F41°F38°F38°F38°F40°F38°F37°F37°F36°F36°F35°F35°F36°F37°F38°F39°F42°F
Pressure 30.3"30.3"30.36"30.36"30.36"30.39"30.39"30.36"30.33"30.33"30.33"30.36"30.36"30.36"30.36"30.36"30.36"30.39"30.39"30.39"30.36"30.36"30.36"30.36"30.36"30.36"30.39"30.39"30.39"30.39"30.39"30.33"30.3"30.27"30.27"30.27"30.27"30.27"30.27"30.27"30.27"30.24"30.24"30.24"30.21"30.21"30.18"30.15"
Wind Speed 2.1 mph2.6 mph2.8 mph3.9 mph4.8 mph5 mph4.3 mph4.6 mph3.2 mph3.7 mph3.1 mph3 mph3 mph2.5 mph2.4 mph2.1 mph3.8 mph3.9 mph4.6 mph4.8 mph4.4 mph4.4 mph4.8 mph5.6 mph7.4 mph6.8 mph6.2 mph5.8 mph5.2 mph6.9 mph6.8 mph7.2 mph6.2 mph6.5 mph6.3 mph4.9 mph3.6 mph3.2 mph2.9 mph1.9 mph2 mph0.3 mph1.7 mph2.7 mph4.4 mph6 mph6.3 mph4.9 mph
Wind
Direction
213°
SSW
202°
SSW
190°
S
169°
S
181°
S
187°
S
204°
SSW
211°
SSW
215°
SW
236°
SW
239°
WSW
230°
SW
182°
S
185°
S
202°
SSW
215°
SW
194°
SSW
226°
SW
234°
SW
250°
WSW
276°
W
271°
W
299°
WNW
315°
NW
322°
NW
335°
NNW
336°
NNW
345°
NNW
330°
NNW
349°
N
340°
NNW
338°
NNW
332°
NNW
322°
NW
322°
NW
314°
NW
323°
NW
347°
NNW
341°
NNW

N
10°
N

N
228°
SW
209°
SSW
219°
SW
207°
SSW
219°
SW
224°
SW

Daily Forecast

Date High Low Precip. Humidity
Today
Jan 19

Clear
62 °F
30 °F
0%
41%
Wednesday
Jan 20

Clouds
60 °F
47 °F
0%
58%
Thursday
Jan 21

Rain
56 °F
47 °F
100%
86%
Friday
Jan 22

Rain
61 °F
48 °F
100%
95%
Saturday
Jan 23

Rain
62 °F
42 °F
64%
66%
Sunday
Jan 24

Clouds
57 °F
49 °F
0%
79%
Monday
Jan 25

Rain
67 °F
58 °F
80%
88%
Tuesday
Jan 26

Rain
71 °F
63 °F
100%
82%
Wednesday
Jan 27

Rain
71 °F
60 °F
100%
91%
Thursday
Jan 28

Clear
53 °F
41 °F
0%
54%
Friday
Jan 29

Clear
55 °F
32 °F
0%
44%
Saturday
Jan 30

Clear
58 °F
38 °F
0%
54%
Sunday
Jan 31

Clouds
56 °F
41 °F
16%
49%
Monday
Feb 1

Clear
53 °F
36 °F
0%
47%
Tuesday
Feb 2

Clear
52 °F
32 °F
0%
46%
Wednesday
Feb 3

Clear
60 °F
35 °F
0%
57%


Temperature 8-14 Day Outlook



Precipitation 8-14 Day Outlook




Quick Links
Pike County Lake News
Pike County Lake Photos
Pike County Lake Videos




About Us
Contact Us
Site Map
Search Site
Advertise With Us
   
PikeCounty.LakesOnline.com
THE PIKE COUNTY LAKE WEBSITE

Copyright 2021, Lakes Online
Privacy    |    Legal